DW8209 Gubbio IT current weather conditions

sailwx.info

Wind from 200 at 4 knots gusting 10

Air temperature 21.7° C
Dewpoint 16.2° C

Last reported at 2016-May-29 12:43 UTC.
Time now 2016-May-29 13:25 UTC

Location: N 43°19' E 012°34'.
View on Google Maps.

See reports from other nearby stations

  
Tides and Currents Weather Stations Pressure Air Temp Water Temp Dewpoint Dewpoint Depression Visibility Wind Speed Wind Dir Waves Ship Positions
date/time (UTC)wind fromknots sea level pressurealtimeterstation pressurevisibilityair tempwater tempwave heightnotes
2016-May-29 12:43 200 4 gusting 10 21.7
2016-May-29 12:28 156 2 gusting 10 21.7
2016-May-29 12:13 136 5 gusting 9 21.7
2016-May-29 11:58 186 3 gusting 13 21.7
2016-May-29 11:43 134 3 gusting 8 21.7
2016-May-29 11:28 158 1 gusting 6 21.1
2016-May-29 11:13 156 1 gusting 7 20.6
2016-May-29 10:58 117 5 gusting 6 19.4
2016-May-29 10:43 102 3 gusting 5 19.4
2016-May-29 10:28 105 2 gusting 3 19.4
2016-May-29 10:13 169 19.4
2016-May-29 09:58 222 2 gusting 4 19.4
2016-May-29 09:43 228 0 gusting 2 19.4
2016-May-29 09:28 314 1 gusting 4 19.4
2016-May-29 09:13 240 3 gusting 8 20.6
2016-May-29 08:58 200 2 gusting 5 22.2
2016-May-29 08:42 218 0 gusting 2 22.2
2016-May-29 08:27 225 0 gusting 1 22.8
2016-May-29 08:12 321 21.7
2016-May-29 07:57 302 21.1
2016-May-29 07:42 211 0 gusting 2 21.1
2016-May-29 07:27 241 20.6
2016-May-29 07:12 222 19.4
2016-May-29 06:57 283 17.8
2016-May-29 06:42 198 17.8
2016-May-29 06:27 089 2 gusting 3 17.8
2016-May-29 06:12 090 0 gusting 2 17.2
2016-May-29 05:57 099 0 gusting 2 16.7
2016-May-29 05:42 124 1 gusting 3 16.1
2016-May-29 05:27 113 1 gusting 3 16.1
2016-May-29 05:12 098 3 gusting 5 15.6
2016-May-29 04:57 086 5 gusting 9 15.6
2016-May-29 04:42 086 6 gusting 6 14.4
2016-May-29 04:27
2016-May-29 04:12
2016-May-29 03:57
2016-May-29 03:42
2016-May-29 03:27
2016-May-29 03:12
2016-May-29 02:57 132 14.4
2016-May-29 02:41 132 14.4
2016-May-29 02:26 027 1 gusting 3 15.0
2016-May-29 02:11 110 15.0
2016-May-29 01:56 278 15.0
2016-May-29 01:41 281 1 gusting 3 15.0
2016-May-29 01:26 283 1 gusting 3 15.0
2016-May-29 01:11 260 15.6
2016-May-29 00:56 229 16.1
2016-May-29 00:41 229 16.1
2016-May-29 00:26 152 16.7
2016-May-29 00:11 152 17.2
2016-May-28 23:56 163 17.8
2016-May-28 23:41 129 18.3
2016-May-28 23:26 150 18.9
2016-May-28 23:11 114 19.4
2016-May-28 22:56 252 0 gusting 5 19.4
2016-May-28 22:41 276 18.9
2016-May-28 22:26 240 0 gusting 1 19.4
2016-May-28 22:11 047 19.4
2016-May-28 21:56 088 1 gusting 1 20.0
2016-May-28 21:40 128 0 gusting 1 20.0
2016-May-28 21:25 166 20.0
2016-May-28 21:10 146 2 gusting 4 20.6
2016-May-28 20:55 214 0 gusting 2 21.1
2016-May-28 20:40 260 21.1
2016-May-28 20:25 217 1 gusting 5 21.7
2016-May-28 20:10 161 4 gusting 6 21.7
2016-May-28 19:55 263 2 gusting 6 21.7
2016-May-28 19:40 131 20.6
2016-May-28 19:25 129 21.1
2016-May-28 19:10 343 0 gusting 1 21.1
2016-May-28 18:55 356 0 gusting 1 21.7
2016-May-28 18:40 236 22.2
2016-May-28 18:25 238 22.8
2016-May-28 18:10 218 0 gusting 1 23.9
2016-May-28 17:55 217 0 gusting 1 24.4
2016-May-28 17:40 222 1 gusting 3 25.0
2016-May-28 17:25 229 1 gusting 3 25.0
2016-May-28 17:10 233 2 gusting 5 25.6
2016-May-28 16:55 265 2 gusting 6 26.1
2016-May-28 16:40 271 3 gusting 6 26.1
2016-May-28 16:25 281 3 gusting 5 27.2
2016-May-28 16:10 222 2 gusting 7 27.2
2016-May-28 15:55 212 2 gusting 7 27.2
2016-May-28 15:40 212 2 gusting 7 27.2
2016-May-28 15:25 207 0 gusting 7 27.8
2016-May-28 15:10 217 2 gusting 7 27.8
2016-May-28 14:55 190 2 gusting 8 28.3
2016-May-28 14:40 150 1 gusting 6 28.3
2016-May-28 14:25 148 1 gusting 4 28.9
2016-May-28 14:10 153 1 gusting 6 28.3
2016-May-28 13:55 212 28.3
2016-May-28 13:40 181 28.9
2016-May-28 13:25 076 0 gusting 5 27.8
2016-May-28 13:10 163 1 gusting 4 27.8
2016-May-28 12:55 170 1 gusting 6 28.3
2016-May-28 12:40 146 1 gusting 4 27.8
2016-May-28 12:25 179 0 gusting 5 27.2
2016-May-28 12:10 229 3 gusting 6 27.8
2016-May-28 11:55 283 0 gusting 6 27.2
2016-May-28 11:40 233 1 gusting 6 27.2
2016-May-28 11:25 210 4 gusting 6 27.2
2016-May-28 11:10 225 1 gusting 4 27.8
2016-May-28 10:55 167 2 gusting 6 27.8
2016-May-28 10:40 350 0 gusting 3 28.3
2016-May-28 10:25 314 27.8
2016-May-28 10:10 068 0 gusting 2 27.8
2016-May-28 09:55 075 0 gusting 1 28.3
2016-May-28 09:40 156 27.2
2016-May-28 09:25 248 0 gusting 3 27.8
2016-May-28 09:10 143 27.2
2016-May-28 08:55 221 0 gusting 1 26.7
2016-May-28 08:40 345 26.1
2016-May-28 08:25 276 25.6
2016-May-28 08:09 149 23.9
2016-May-28 07:54 125 23.3
2016-May-28 07:39 130 23.3
2016-May-28 07:24 022 22.2
2016-May-28 07:09 240 21.7
2016-May-28 06:54 105 20.0
2016-May-28 06:39 091 18.9
2016-May-28 06:24 091 17.8
2016-May-28 06:09 129 16.7
2016-May-28 05:54 127 16.7
2016-May-28 05:39 090 15.6
2016-May-28 05:24 294 15.6
2016-May-28 05:09 294 13.9
2016-May-28 04:54 293 12.2
2016-May-28 04:39 294 11.7
2016-May-28 04:24
2016-May-28 04:08
2016-May-28 03:53
2016-May-28 03:38
2016-May-28 03:23
2016-May-28 03:08 271 10.6
2016-May-28 02:53 271 11.1
2016-May-28 02:38 271 10.6
2016-May-28 02:23 271 11.1
2016-May-28 02:08 274 11.1
2016-May-28 01:53 273 11.1
2016-May-28 01:38 274 11.7
2016-May-28 01:23 274 11.7
2016-May-28 01:08 274 11.7
2016-May-28 00:53 274 11.7
2016-May-28 00:38 274 12.2
2016-May-28 00:23 273 0 gusting 0 12.2
2016-May-28 00:08 250 12.2
2016-May-27 23:53 250 12.2
2016-May-27 23:38 250 12.8
2016-May-27 23:23 250 12.8
2016-May-27 23:08 250 13.3
2016-May-27 22:53 250 13.3
2016-May-27 22:37 250 13.3
2016-May-27 22:22 250 13.9
2016-May-27 22:07 271 13.9
2016-May-27 21:52 274 14.4
2016-May-27 21:37 273 14.4
2016-May-27 21:22 284 15.0
2016-May-27 21:07 284 15.0
2016-May-27 20:52 285 15.6
2016-May-27 20:37 297 1 gusting 1 16.1
2016-May-27 20:22 300 16.1
2016-May-27 20:07 262 16.7
2016-May-27 19:52 090 0 gusting 2 16.7
2016-May-27 19:37 287 17.8
2016-May-27 19:22 288 18.3
2016-May-27 19:07 281 18.9
2016-May-27 18:53 281 20.0
2016-May-27 18:37 293 20.6
2016-May-27 18:22 293 21.7
2016-May-27 18:07 293 22.2
2016-May-27 17:52 287 0 gusting 2 23.3
2016-May-27 17:37 218 24.4
2016-May-27 17:22 259 25.0
2016-May-27 17:07 250 26.1
2016-May-27 16:52 257 0 gusting 2 26.1
2016-May-27 16:37 263 0 gusting 2 26.1
2016-May-27 16:22 212 2 gusting 6 26.7
2016-May-27 16:07 214 2 gusting 5 26.1
2016-May-27 15:52 229 1 gusting 7 26.1
2016-May-27 15:37 254 3 gusting 5 26.7
2016-May-27 15:22 212 1 gusting 6 27.2
2016-May-27 15:07 231 2 gusting 5 27.8
2016-May-27 14:52 207 3 gusting 6 27.8
2016-May-27 14:37 186 4 gusting 8 27.2
2016-May-27 14:22 125 0 gusting 5 27.2
2016-May-27 14:07 173 2 gusting 6 27.2
2016-May-27 13:52 218 1 gusting 6 27.2
2016-May-27 13:37 256 5 gusting 9 27.8
2016-May-27 13:22 158 1 gusting 10 27.2
2016-May-27 13:08 218 2 gusting 9 27.2